Location: Haliburton Scout Reserve
(45.0900°N, 78.3200°W)
Time: 09:03:51
(UTC-05:00)

Vanguard 2 - All Passes

Search period start: 27 January 2023 00:00
Search period end: 06 February 2023 00:00
Orbit: 554 x 2930 km, 32.9° (Epoch: 26 January)

Date Brightness Start Highest point End Pass type
(mag) Time Alt. Az. Time Alt. Az. Time Alt. Az.
27 Jan - 00:04:21 10° SW 00:20:08 44° SSE 00:35:02 10° E visible
27 Jan - 02:14:26 10° WSW 02:31:22 53° S 02:44:46 10° ESE visible
27 Jan - 04:26:48 10° W 04:41:46 41° SSW 04:52:24 10° SE visible
27 Jan - 06:41:47 10° W 06:49:55 18° SW 06:56:20 10° S visible
27 Jan - 22:13:28 10° SSW 22:26:18 30° SE 22:40:08 10° E visible
28 Jan - 00:20:39 10° SW 00:36:49 49° SSE 00:52:00 10° E visible
28 Jan - 02:31:14 10° WSW 02:48:07 52° S 03:01:27 10° ESE visible
28 Jan - 04:43:56 10° W 04:58:13 37° SSW 05:08:34 10° SSE visible
28 Jan - 07:00:44 10° WSW 07:05:58 13° SW 07:10:28 10° SSW visible
28 Jan - 20:27:33 10° SSE 20:33:48 14° SE 20:40:35 10° ESE visible
28 Jan - 22:29:04 10° SSW 22:42:41 36° SSE 22:57:32 10° E visible
29 Jan - 00:37:07 10° WSW 00:53:32 52° S 01:08:52 10° ESE visible
29 Jan - 02:48:06 10° W 03:04:50 51° SSW 03:18:01 10° ESE visible
29 Jan - 05:01:13 10° W 05:14:34 31° SW 05:24:30 10° SSE visible
29 Jan - 20:40:55 10° S 20:49:52 19° SE 21:00:03 10° E visible
29 Jan - 22:44:57 10° SW 22:59:09 41° SSE 23:14:43 10° E visible
30 Jan - 00:53:43 10° WSW 01:10:17 54° S 01:25:41 10° ESE visible
30 Jan - 03:05:02 10° W 03:21:29 47° SSW 03:34:28 10° SE visible
30 Jan - 05:18:43 10° W 05:30:48 26° SW 05:40:06 10° S visible
30 Jan - 20:55:34 10° S 21:06:00 24° SE 21:18:18 10° E visible
30 Jan - 23:01:06 10° SW 23:15:41 46° SSE 23:31:46 10° E visible
31 Jan - 01:10:24 10° WSW 01:27:02 54° S 01:42:25 10° ESE visible
31 Jan - 03:22:03 10° W 03:38:02 43° SSW 03:50:45 10° SE visible
31 Jan - 05:36:37 10° W 05:46:55 21° SW 05:55:14 10° S visible
31 Jan - 21:10:50 10° SSW 21:22:12 30° SE 21:35:59 10° E visible
31 Jan - 23:17:25 10° SW 23:32:18 49° SSE 23:48:43 10° E visible
01 Feb - 01:27:10 10° WSW 01:43:47 53° S 01:59:03 10° ESE visible
01 Feb - 03:39:09 10° W 03:54:30 38° SSW 04:06:51 10° SSE visible
01 Feb - 05:55:18 10° WSW 06:02:57 15° SW 06:09:31 10° SSW visible
01 Feb - 19:25:37 10° SSE 19:30:19 12° SE 19:35:33 10° ESE visible
01 Feb - 21:26:30 10° SSW 21:38:29 35° SSE 21:53:21 10° E visible
01 Feb - 23:33:54 10° WSW 23:48:59 52° S 00:05:35 10° ESE visible
02 Feb - 01:44:00 10° W 02:00:29 51° SSW 02:15:36 10° ESE visible
02 Feb - 03:56:23 10° W 04:10:51 33° SSW 04:22:42 10° SSE visible
02 Feb - 06:16:54 10° WSW 06:18:54 10° SW 06:20:49 10° SW visible
02 Feb - 19:38:55 10° S 19:46:17 18° SE 19:55:09 10° E visible
02 Feb - 21:42:27 10° SW 21:54:53 40° SSE 22:10:30 10° E visible
02 Feb - 23:50:28 10° WSW 00:05:42 54° S 00:22:22 10° ESE visible
03 Feb - 02:00:54 10° W 02:17:08 48° SSW 02:32:00 10° SE visible
03 Feb - 04:13:52 10° W 04:27:06 27° SW 04:38:12 10° SSE visible
03 Feb - 19:53:38 10° S 20:02:20 23° SE 20:13:23 10° E visible
03 Feb - 21:58:38 10° SW 22:11:22 45° SSE 22:27:32 10° E visible
04 Feb - 00:07:08 10° WSW 00:22:25 54° S 00:39:05 10° ESE visible
04 Feb - 02:17:51 10° W 02:33:41 44° SSW 02:48:13 10° SE visible
04 Feb - 04:31:43 10° W 04:43:14 22° SW 04:53:11 10° S visible
04 Feb - 20:08:59 10° SSW 20:18:28 28° SE 20:31:03 10° E visible
04 Feb - 22:14:58 10° SW 22:27:55 49° SSE 22:44:28 10° E visible
05 Feb - 00:23:52 10° WSW 00:39:09 53° S 00:55:42 10° ESE visible
05 Feb - 02:34:55 10° W 02:50:10 38° SSW 03:04:14 10° SSE visible
05 Feb - 04:50:20 10° WSW 04:59:17 17° SW 05:07:22 10° SSW visible
05 Feb - 18:25:45 10° SE 18:27:14 10° SE 18:28:47 10° ESE visible
05 Feb - 20:24:41 10° SSW 20:34:42 34° SSE 20:48:23 10° E visible
05 Feb - 22:31:26 10° WSW 22:44:33 51° S 23:01:19 10° ESE visible
